Regional Weather Roundup
Issued by NWS

Home | Current Version | Previous Version | Text Only | Print | Product List | Glossary On
Versions: 1 2 3 4 5 6 7 8 9 10 11 12 13 14 15 16 17 18 19 20 21 22 23 24 25 26 27 28 29 30 31 32 33 34 35 36 37 38 39 40 41 42 43 44 45 46 47 48 49 50
000
ASUS42 KFFC 051303
RWRGA
WEATHER ROUNDUP FOR GEORGIA
NATIONAL WEATHER SERVICE PEACHTREE CITY GA
800 AM EST MON DEC 05 2016

NOTE: "FAIR" INDICATES FEW OR NO CLOUDS BELOW 12,000 FEET WITH NO
SIGNIFICANT WEATHER AND/OR OBSTRUCTIONS TO VISIBILITY.

* = USE WITH CAUTION. THE STATIONS MARKED WITH AN ASTERISK MAY NOT
REPORT WEATHER SUCH AS PRECIPITATION, FOG, OR THUNDER AND ARE NOT
QUALITY CONTROLLED BY NWS.

THE REMARK "TC" DENOTES TEMPERATURE READING IN DEGREES CELSIUS.

GAZ001>058-051400-
NORTH GEORGIA

CITY           SKY/WX    TMP DP  RH WIND       PRES   REMARKS
ATLANTA        FOG       45  45 100 CALM      29.99S VSB 1
ATHENS         MOCLDY    44  43  96 CALM      29.98F FOG
CHAMBLEE       CLOUDY    45  43  93 CALM      30.00R FOG
PEACHTREE CITY CLOUDY    45  44  97 CALM      30.01S FOG
ROME           CLOUDY    45  45 100 CALM      30.01R FOG
WEST ATLANTA   CLOUDY    50  42  74 CALM      30.00R HAZE
GAINESVILLE    CLOUDY    44  44 100 S3        29.99R FOG
CARTERSVILLE   CLOUDY    45  44  97 CALM      30.02R FOG


CITY           SKY/WX    TMP DP  RH WIND       PRES   REMARKS
DALTON*        CLOUDY    45  45 100 NW3       30.01R FOG
LAWRENCEVILLE* CLOUDY    43  41  93 CALM      29.98S FOG
MARIETTA       CLOUDY    45  44  95 CALM      29.99R FOG
KENNESAW*      CLOUDY    45  39  81 CALM      30.04R FOG
CANTON*        MOCLDY    45  43  93 W3        30.00R FOG
$$

GAZ059>098-102>109-051400-
CENTRAL GEORGIA

CITY           SKY/WX    TMP DP  RH WIND       PRES   REMARKS
AUGUSTA-BUSH   LGT RAIN  48  45  89 N10       30.03R
AUGUSTA-DANIEL CLOUDY    46  42  86 N6        30.03R
COLUMBUS       FOG       49  48  97 NE5       29.99R VSB 1
MACON          FOG       46  45  96 E6        30.00S VSB 1/2
ROBINS AFB     CLOUDY    47  46  97 NE3       30.00R


CITY           SKY/WX    TMP DP  RH WIND       PRES   REMARKS
LAGRANGE*      CLOUDY    48  48 100 CALM      30.01R FOG
SYLVANIA*      RAIN     N/A N/A N/A N12       30.02R
MILLEDGEVILLE* CLOUDY    45  45 100 E3        30.02R FOG
$$

GAZ099>101-110>166-051400-
SOUTH GEORGIA

CITY           SKY/WX    TMP DP  RH WIND       PRES   REMARKS
SAVANNAH       CLOUDY    67  64  90 S3        29.93S
VALDOSTA       LGT RAIN  67  67 100 S7        29.95R FOG
ALMA           CLOUDY    66  66 100 S7        29.94R
ST SIMONS      LGT RAIN  67  64  90 S9        29.94F
FT STEWART     CLOUDY    66  64  93 CALM      29.91R
ALBANY         FOG       53  53 100 N6        29.99R VSB 1/4
HUNTER AFB     MOCLDY    66  66 100 S6        29.90F FOG
MOODY AFB      CLOUDY    67  67  98 S7        29.93S
BRUNSWICK      CLOUDY    70  68  94 S10G18    29.95F


CITY           SKY/WX    TMP DP  RH WIND       PRES   REMARKS
BAINBRIDGE*    FOG       61  61 100 N7        29.93R VSB 1/2
MOULTRIE*      MOCLDY    66  64  94 CALM      29.94R
VIDALIA*       CLOUDY    52  52 100 N12G22    30.00R FOG
WAYCROSS*      MOCLDY    68  68 100 SW7       29.94S
DOUGLAS*       CLOUDY    68  64  88 SW5       29.96R
$$



USA.gov is the U.S. government's official web portal to all federal, state and local government web resources and services.